Location: Gälforsberget
(66.6500°N, 22.4167°E)
Time: 15:42:48
(UTC+00:00)

Cosmos 2369 - Pass Details

Date: 11 April 2026
Orbit: 837 x 855 km, 71.0° (Epoch: 17 May)

Event Time Altitude Azimuth Distance (km) Brightness Sun altitude
Rises 21:30:06 0° 283° (WNW) 3,403 7.3 -14.0°
Reaches altitude 10° 21:32:36 10° 287° (WNW) 2,470 6.6 -14.0°
Maximum altitude 21:38:11 57° 6° (N) 995 4.4 -14.2°
Drops below altitude 10° 21:43:48 10° 86° (E) 2,480 6.1 -14.3°
Sets 21:46:18 0° 90° (E) 3,418 6.7 -14.3°
